Home > Weather > Fort Worth > Past weeks

Flag for U.S.A. Weather for the Past 2 Weeks in Fort Worth, Texas, U.S.A.

Now
46 °F

Mostly cloudy.


Feels Like: 41 °F
Forecast: 39 / 55 °F
Wind: 12 mph from North

Location: Meacham International Airport

Current Time: Feb 6, 2016 at 1:02:38 PM

Latest Report: Feb 6, 2016 at 11:53 AM


Visibility: 10 mi

Pressure: 30.41 "Hg

Humidity: 68%

Dew point: 36 °F

Location of Fort WorthLocation

Historic Weather in Fort Worth — Graph

°F

Fort Worth Temperature Yesterday

Maximum temperature yesterday: 59 °F (at 1:53 PM)
Minimum temperature yesterday: 36 °F (at 7:53 AM)
Average temperature yesterday: 48 °F

High & Low Weather Summary for the Past Weeks

 TemperatureHumidityPressure
High79 °F (Jan 30, 3:53 PM)89% (Jan 23, 5:53 AM)30.51 "Hg (Jan 23, 5:53 AM)
Low29 °F (Jan 23, 1:53 AM)18% (Jan 29, 4:53 PM)29.49 "Hg (Feb 1, 4:53 PM)
Average51 °F52%30.06 "Hg
* Reported Jan 22 11:53 AM — Feb 6 11:53 AM, Fort Worth, Weather by CustomWeather, © 2016

Note: Actual official high and low records may vary slightly from our data, if they occured in-between our weather recording intervals... More about our weather records

Advertising

Fort Worth Weather History for the Previous 24 Hours

 ConditionsComfort  
Time TempWeatherWind HumidityBarometerVisibility
11:53 AM
Sat, Feb 6
46 °FMostly cloudy.12 mph68%30.41 "Hg10 mi
10:53 AM45 °FMostly cloudy.15 mph74%30.40 "Hg10 mi
9:53 AM44 °FOvercast.15 mph76%30.37 "Hg10 mi
8:53 AM40 °FSunny.12 mph70%30.32 "Hg10 mi
7:53 AM37 °FSunny.14 mph70%30.28 "Hg10 mi
6:53 AM37 °FClear.12 mph67%30.24 "Hg10 mi
5:53 AM37 °FClear.7 mph67%30.22 "Hg10 mi
4:53 AM39 °FClear.6 mph65%30.21 "Hg10 mi
3:53 AM41 °FClear.5 mph67%30.20 "Hg10 mi
2:53 AM42 °FClear.No wind73%30.21 "Hg10 mi
1:53 AM42 °FClear.8 mph73%30.21 "Hg10 mi
12:53 AM47 °FPassing clouds.14 mph64%30.22 "Hg10 mi
11:53 PM
Fri, Feb 5
49 °FLight rain. Mostly cloudy.9 mph55%30.27 "Hg10 mi
10:53 PM50 °FOvercast.9 mph35%30.26 "Hg10 mi
9:53 PM49 °FMostly cloudy.10 mph38%30.24 "Hg10 mi
8:53 PM49 °FClear.12 mph38%30.25 "Hg10 mi
7:53 PM51 °FClear.12 mph35%30.26 "Hg10 mi
6:53 PM54 °FOvercast.14 mph29%30.27 "Hg10 mi
5:53 PM53 °FScattered clouds.12 mph32%30.27 "Hg10 mi
4:53 PM57 °FSunny.16 mph29%30.24 "Hg10 mi
3:53 PM58 °FSunny.16 mph27%30.26 "Hg10 mi
2:53 PM59 °FSunny.13 mph27%30.28 "Hg10 mi
1:53 PM59 °FSunny.16 mph27%30.30 "Hg10 mi
Weather by CustomWeather, © 2016

See weather overviewHow to use our weather pages